Location: Newark
(3.3223°N, 76.2348°W)
Time: 07:24:21
(UTC+00:00)

BEESAT 2 - Pass Details

Date: 31 January 2020
Orbit: 493 x 534 km, 64.9° (Epoch: 20 February)

Event Time Altitude Azimuth Distance (km) Brightness Sun altitude
Exits shadow 10:41:26 - 321° (NW) 1,864 ? -9.8°
Reaches altitude 10° 10:41:44 10° 320° (NW) 1,754 ? -9.7°
Maximum altitude 10:45:26 41° 249° (WSW) 762 ? -8.8°
Drops below altitude 10° 10:49:07 10° 178° (S) 1,736 ? -8.0°
Sets 10:51:21 0° 170° (S) 2,616 ? -7.4°
